Location: Copper Breaks State Park
(34.1132°N, 99.7492°W)
Time: 03:05:29
(UTC-05:00)

SL-16 R/B - Visible Passes

Search period start: 21 September 2014 00:00
Search period end: 01 October 2014 00:00
Orbit: 985 x 1007 km, 99.2° (Epoch: 20 September)

Date Brightness Start Highest point End Pass type
(mag) Time Alt. Az. Time Alt. Az. Time Alt. Az.
21 Sep 4.9 04:17:41 10° ESE 04:21:39 18° ENE 04:25:37 10° NNE visible
21 Sep 2.5 05:58:38 10° S 06:04:42 62° WSW 06:10:48 10° NNW visible
22 Sep 4.1 04:46:50 10° SE 04:52:12 33° ENE 04:57:34 10° N visible
22 Sep 3.1 06:30:16 10° SSW 06:35:42 33° W 06:41:11 10° NW visible
23 Sep 3.0 05:16:52 10° SSE 05:22:53 60° ENE 05:28:55 10° N visible
23 Sep 3.8 07:02:58 10° SW 07:06:51 17° W 07:10:45 10° NW visible
23 Sep 5.2 19:49:39 10° NNW 19:53:56 20° WNW 19:58:14 10° WSW visible
24 Sep 5.2 04:07:39 10° E 04:10:50 15° ENE 04:14:01 10° NNE visible
24 Sep 2.4 05:47:35 10° S 05:53:43 76° WSW 05:59:53 10° NNW visible
24 Sep 5.8 20:23:25 10° NW 20:24:20 10° WNW 20:25:15 10° WNW visible
25 Sep 4.4 04:36:20 10° ESE 04:41:19 27° ENE 04:46:19 10° NNE visible
25 Sep 2.8 06:18:57 10° SSW 06:24:40 41° W 06:30:26 10° NNW visible
26 Sep 3.4 05:06:06 10° SE 05:11:57 48° ENE 05:17:50 10° N visible
26 Sep 3.6 06:51:12 10° SW 06:55:46 22° W 07:00:22 10° NW visible
27 Sep 5.3 03:58:04 10° ENE 04:00:02 12° ENE 04:02:00 10° NE visible
27 Sep 2.5 05:36:35 10° SSE 05:42:44 88° ENE 05:48:55 10° NNW visible
27 Sep 5.4 20:10:49 10° NW 20:13:33 13° WNW 20:16:17 10° W visible
28 Sep 4.7 04:25:56 10° ESE 04:30:27 22° ENE 04:34:59 10° NNE visible
28 Sep 2.6 06:07:43 10° S 06:13:39 51° W 06:19:38 10° NNW visible
29 Sep 3.7 04:55:25 10° SE 05:01:03 39° ENE 05:06:42 10° N visible
29 Sep 3.3 06:39:37 10° SSW 06:44:42 27° W 06:49:49 10° NW visible
30 Sep 2.7 05:25:40 10° SSE 05:31:46 72° ENE 05:37:55 10° N visible
30 Sep 5.3 19:59:04 10° NNW 20:02:45 17° WNW 20:06:26 10° W visible
